Flag for Turkey Weather past 2 weeks in Mersin, Turkey

70 °F

Passing clouds.

Feels Like: 70 °F
Forecast: 57 / 84 °F
Wind: 6 mph from Northeast

Location: Adana / Sakirpasa

Current Time: Oct 10, 2015 at 8:26:31 AM

Latest Report: Oct 10, 2015 at 7:50 AM

Visibility: N/A

Pressure: 29.98 "Hg

Humidity: 83%

Dew point: 64 °F

Location of MersinLocation

Historic Weather in Mersin — Graph


Mersin temperature yesterday

Maximum temperature yesterday: 82 °F (at 1:50 PM)
Minimum temperature yesterday: 64 °F (at 4:20 AM)
Average temperature yesterday: 73 °F

Past Weeks' High & Low Weather Summary

High91 °F (Oct 3, 2:20 PM)94% (Sep 30, 6:50 AM)30.12 "Hg (Sep 30, 6:50 AM)
Low64 °F (Oct 7, 5:20 AM)27% (Oct 4, 3:50 PM)29.62 "Hg (Oct 7, 12:50 AM)
Average77 °F69%29.88 "Hg
* Reported Sep 25 6:50 AM — Oct 10 6:50 AM, Mersin, Weather by CustomWeather, © 2015

Note: Actual official high and low records may vary slightly from our data, if they occured in-between our weather recording intervals... More about our weather records


Mersin weather history for previous 24 hours

Time TempWeatherWind HumidityBarometerVisibility
6:50 AM
Sat, Oct 10
66 °FClear.7 mph88%29.95 "Hg10 mi
6:20 AM66 °FClear.6 mph83%29.95 "Hg10 mi
5:50 AM66 °FClear.6 mph83%29.95 "Hg10 mi
5:20 AM66 °FPassing clouds.6 mph83%29.95 "HgN/A
4:50 AM66 °FPassing clouds.5 mph88%29.95 "HgN/A
4:20 AM66 °FPassing clouds.6 mph83%29.95 "HgN/A
3:50 AM66 °FPassing clouds.5 mph88%29.95 "HgN/A
3:20 AM68 °FPassing clouds.6 mph83%29.95 "HgN/A
2:50 AM66 °FPassing clouds.7 mph88%29.95 "HgN/A
2:20 AM66 °FPassing clouds.7 mph88%29.95 "HgN/A
1:50 AM68 °FPassing clouds.6 mph88%29.95 "HgN/A
1:20 AM68 °FPassing clouds.5 mph88%29.95 "HgN/A
12:50 AM70 °FPassing clouds.7 mph83%29.95 "HgN/A
11:50 PM
Fri, Oct 9
70 °FPassing clouds.No wind83%29.92 "HgN/A
11:20 PM70 °FPassing clouds.No wind83%29.92 "HgN/A
10:50 PM72 °FPassing clouds.No wind78%29.92 "HgN/A
10:20 PM70 °FPassing clouds.No wind83%29.92 "HgN/A
9:50 PM72 °FPassing clouds.No wind78%29.92 "HgN/A
9:20 PM72 °FPassing clouds.No wind78%29.92 "HgN/A
8:50 PM73 °FPassing clouds.No wind74%29.92 "HgN/A
8:20 PM73 °FPassing clouds.1 mph74%29.89 "HgN/A
7:50 PM73 °FPassing clouds.2 mph74%29.89 "HgN/A
7:20 PM73 °FPassing clouds.2 mph74%29.89 "HgN/A
6:50 PM75 °FScattered clouds.5 mph65%29.89 "HgN/A
6:20 PM75 °FScattered clouds.6 mph69%29.89 "HgN/A
5:20 PM79 °FScattered clouds.6 mph54%29.86 "HgN/A
4:50 PM79 °FScattered clouds.8 mph54%29.86 "HgN/A
4:20 PM81 °FScattered clouds.10 mph48%29.86 "HgN/A
3:50 PM81 °FPassing clouds.10 mph48%29.86 "HgN/A
3:20 PM82 °FPassing clouds.10 mph45%29.86 "HgN/A
2:50 PM81 °FPassing clouds.9 mph48%29.86 "HgN/A
2:20 PM81 °FPassing clouds.7 mph45%29.86 "HgN/A
1:50 PM82 °FPassing clouds.6 mph45%29.86 "HgN/A
1:20 PM81 °FPassing clouds.6 mph48%29.86 "HgN/A
12:50 PM81 °FPassing clouds.7 mph45%29.89 "HgN/A
12:20 PM79 °FPassing clouds.6 mph48%29.89 "HgN/A
11:50 AM79 °FPassing clouds.3 mph51%29.89 "HgN/A
11:20 AM79 °FPassing clouds.3 mph51%29.89 "HgN/A
10:50 AM79 °FPassing clouds.2 mph51%29.92 "HgN/A
10:20 AM77 °FPassing clouds.2 mph51%29.89 "HgN/A
9:50 AM75 °FPassing clouds.5 mph50%29.89 "HgN/A
9:20 AM75 °FPassing clouds.7 mph54%29.89 "HgN/A
8:50 AM73 °FPassing clouds.5 mph57%29.89 "HgN/A
8:20 AM72 °FPassing clouds.5 mph65%29.89 "HgN/A
Weather by CustomWeather, © 2015

See weather overviewHow to use our weather pages